Regional Weather Roundup
Issued by NWS

Home | Current Version | Previous Version | Graphics & Text | Print | Product List | Glossary Off
Versions: 1 2 3 4 5 6 7 8 9 10 11 12 13 14 15 16 17 18 19 20 21 22 23 24 25 26 27 28 29 30 31 32 33 34 35 36 37 38 39 40 41 42 43 44 45 46 47 48 49 50

000
ASUS43 KFSD 262210
RWRSD

WEATHER ROUNDUP FOR SOUTH DAKOTA
NATIONAL WEATHER SERVICE SIOUX FALLS SD
500 PM CDT TUE SEP 26 2017

NOTE: "FAIR" INDICATES FEW OR NO CLOUDS BELOW 12,000 FEET WITH NO
SIGNIFICANT WEATHER AND/OR OBSTRUCTIONS TO VISIBILITY.


SDZ001>005-009-010-012>017-262300-
NORTHWEST AND NORTH CENTRAL SOUTH DAKOTA

CITY           SKY/WX    TMP DP  RH WIND       PRES   REMARKS
BUFFALO          N/A     60  38  43 W8G18     30.06S
FAITH            N/A     62  41  46 NW13      30.10F
MOBRIDGE       PTSUNNY   61  46  57 S3        30.08S
$$

SDZ012>016-024>037-041>051-057-063-072>074-262300-
SOUTHWEST AND SOUTH CENTRAL SOUTH DAKOTA

CITY           SKY/WX    TMP DP  RH WIND       PRES   REMARKS
RAPID CTY ARPT PTSUNNY   63  39  42 N14       30.12S
PIERRE         SUNNY     66  43  43 VRB5      30.08S
CUSTER         MOSUNNY   55  31  39 NW10      30.18R
ELLSWORTH AFB  SUNNY     64  37  37 N16G22    30.11S
PHILIP         PTSUNNY   66  39  37 N13G20    30.09R
PINE RIDGE     SUNNY     67  28  23 NW8G22    30.12S
SPEARFISH      FAIR      59  34  38 NW12G25   30.16R
WINNER         FAIR      66  47  50 CALM      30.11S
$$

SDZ004>011-016>023-039-040-262300-
NORTHEAST SOUTH DAKOTA

CITY           SKY/WX    TMP DP  RH WIND       PRES   REMARKS
ABERDEEN       PTSUNNY   59  45  59 NW6       30.10S
WATERTOWN      PTSUNNY   57  47  69 NW9       30.09S
BROOKINGS      PTSUNNY   57  47  69 NW14        N/A
SISSETON         N/A     59  48  67 NW13      30.07S
$$

SDZ017-020-022-023-036>040-048>070-262300-
SOUTHEAST SOUTH DAKOTA

CITY           SKY/WX    TMP DP  RH WIND       PRES   REMARKS
SIOUX FALLS    MOSUNNY   63  49  60 NW12G17   30.10F
HURON          MOSUNNY   64  46  52 NW7       30.10F
CHAMBERLAIN    PTSUNNY   66  48  51 CALM      30.10F
MITCHELL       CLOUDY    63  46  54 CALM      30.12S
YANKTON        SUNNY     64  46  52 NW9       30.12S
$$

ABBREVIATIONS USED IN REMARKS
   TC - TEMPERATURE IN CELSIUS
  WCI - WIND CHILL INDEX
   HX - HEAT INDEX
  VSB - VISIBILITY




USA.gov is the U.S. government's official web portal to all federal, state and local government web resources and services.